Terminal Aerodrome Forecast
Issued by NWS

Home | Current Version | Previous Version | Text Only | Print | Product List | Glossary On
Versions: 1 2 3 4 5 6 7 8 9 10 11 12 13 14 15 16 17 18 19 20 21 22 23 24 25 26 27 28 29 30 31 32 33 34 35 36 37 38 39 40 41 42 43 44 45 46 47 48 49 50
547
FTUS43 KLOT 230535
TAFMDW
TAF
KMDW 230535Z 2306/2412 31005KT P6SM SCT070
     FM231500 34011G16KT P6SM SCT050
     FM232100 04010KT P6SM SCT060 PROB30 2322/2402 5SM -TSRA
      BKN060CB
     FM240400 33005KT P6SM SCT070=

USA.gov is the U.S. government's official web portal to all federal, state and local government web resources and services.